Weather History for Holdrege, NE

Change the Weather History Date:

Sunday, January 6, 2013

  Actual Average Record
Temperature  
Mean Temperature 25 °F -  
Max Temperature 32 °F 33 °F 60 °F (2006)
Min Temperature 18 °F 9 °F -18 °F (1971)
Degree Days  
Heating Degree Days 40    
Moisture  
Dew Point 18 °F    
Average Humidity 74    
Maximum Humidity 84    
Minimum Humidity 59    
Precipitation  
Precipitation 0.00 in - - ()
Sea Level Pressure  
Sea Level Pressure 30.19 in    
Wind  
Wind Speed 8 mph (SW)    
Max Wind Speed 18 mph    
Max Gust Speed 22 mph    
Visibility 10 miles    
Events      
Averages and records for this station are not official NWS values.
T = Trace of Precipitation, MM = Missing Value Source: NWS Daily Summary

Daily Weather History Graph

Daily Weather History Graph

Search for Another Location

Airport:

Trip Planner

Search our weather history database for the weather conditions in past years. The results will help you decide how hot, cold, wet, or windy it might be!

Date:

Astronomy

Jan. 06, 2013 Rise Set
Actual Time 8:00 AM CST 5:26 PM CST
Civil Twilight 7:30 AM CST 5:56 PM CST
Nautical Twilight 6:56 AM CST 6:30 PM CST
Astronomical Twilight 6:23 AM CST 7:03 PM CST
Moon 2:16 AM CST (1/6) 12:55 PM CST (1/6)
Length of Visible Light 10h 26m
Length of Day
9h 25m
Waning Crescent, 33% of the Moon is Illuminated
Jan 6
Waning Crescent
Jan 11
New
Jan 18
First Quarter
Jan 26
Full
Feb 3
Last Quarter

Hourly Weather History & Observations

Time (CST) Temp. Windchill Dew Point Humidity Pressure Visibility Wind Dir Wind Speed Gust Speed Precip Events Conditions
12:15 AM 27.7 °F 18.8 °F 20.7 °F 75% 30.26 in 10.0 mi WNW 9.2 mph - N/A   Scattered Clouds
12:35 AM 24.8 °F 15.3 °F 19.0 °F 79% 30.27 in 10.0 mi West 9.2 mph - N/A   Scattered Clouds
12:55 AM 24.4 °F 16.5 °F 18.7 °F 79% 30.26 in 10.0 mi WNW 6.9 mph - N/A   Scattered Clouds
1:15 AM 23.9 °F 15.0 °F 18.1 °F 79% 30.25 in 10.0 mi WNW 8.1 mph - N/A   Scattered Clouds
1:35 AM 23.9 °F 15.8 °F 18.3 °F 79% 30.26 in 10.0 mi West 6.9 mph - N/A   Scattered Clouds
1:55 AM 23.5 °F 13.0 °F 18.0 °F 79% 30.25 in 10.0 mi West 10.4 mph - N/A   Scattered Clouds
2:15 AM 23.7 °F 14.0 °F 17.8 °F 78% 30.25 in 10.0 mi WNW 9.2 mph - N/A   Scattered Clouds
2:35 AM 23.0 °F 17.0 °F 17.1 °F 78% 30.25 in 10.0 mi WNW 4.6 mph - N/A   Scattered Clouds
2:55 AM 22.1 °F 12.8 °F 17.1 °F 81% 30.25 in 10.0 mi WNW 8.1 mph - N/A   Scattered Clouds
3:15 AM 21.7 °F 12.3 °F 16.7 °F 81% 30.26 in 10.0 mi WNW 8.1 mph - N/A   Scattered Clouds
3:35 AM 21.9 °F 12.5 °F 15.8 °F 77% 30.26 in 10.0 mi West 8.1 mph - N/A   Scattered Clouds
3:55 AM 23.7 °F 16.6 °F 17.4 °F 77% 30.25 in 10.0 mi West 5.8 mph - N/A   Scattered Clouds
4:15 AM 23.5 °F 14.5 °F 16.9 °F 76% 30.25 in 10.0 mi West 8.1 mph - N/A   Scattered Clouds
4:35 AM 19.8 °F 10.8 °F 13.8 °F 78% 30.25 in 10.0 mi West 6.9 mph - N/A   Scattered Clouds
4:55 AM 22.3 °F 12.2 °F 15.6 °F 76% 30.26 in 10.0 mi West 9.2 mph - N/A   Scattered Clouds
5:15 AM 20.5 °F 10.8 °F 14.9 °F 79% 30.26 in 10.0 mi West 8.1 mph - N/A   Scattered Clouds
5:35 AM 20.3 °F 9.8 °F 15.3 °F 81% 30.26 in 10.0 mi West 9.2 mph - N/A   Clear
5:55 AM 19.9 °F 8.6 °F 14.9 °F 81% 30.26 in 10.0 mi West 10.4 mph - N/A   Clear
6:15 AM 19.8 °F 9.1 °F 14.5 °F 80% 30.27 in 10.0 mi West 9.2 mph - N/A   Clear
6:35 AM 18.7 °F 8.6 °F 13.5 °F 80% 30.27 in 10.0 mi WNW 8.1 mph - N/A   Clear
6:55 AM 19.9 °F 10.1 °F 14.7 °F 80% 30.27 in 10.0 mi WNW 8.1 mph - N/A   Clear
7:15 AM 18.9 °F 8.0 °F 13.8 °F 81% 30.27 in 10.0 mi West 9.2 mph - N/A   Clear
7:35 AM 18.3 °F 7.3 °F 12.6 °F 78% 30.28 in 10.0 mi West 9.2 mph - N/A   Clear
7:55 AM 18.3 °F 7.3 °F 13.1 °F 80% 30.28 in 10.0 mi West 9.2 mph - N/A   Clear
8:15 AM 18.3 °F 10.2 °F 13.3 °F 81% 30.28 in 10.0 mi West 5.8 mph - N/A   Clear
8:35 AM 18.1 °F 8.9 °F 12.9 °F 80% 30.29 in 10.0 mi West 6.9 mph - N/A   Clear
8:55 AM 19.0 °F 10.0 °F 13.5 °F 79% 30.29 in 10.0 mi West 6.9 mph - N/A   Clear
9:15 AM 19.4 °F 10.4 °F 13.3 °F 77% 30.29 in 10.0 mi West 6.9 mph - N/A   Clear
9:35 AM 20.3 °F 12.5 °F 13.8 °F 76% 30.29 in 10.0 mi West 5.8 mph - N/A   Clear
9:55 AM 22.3 °F 13.9 °F 14.7 °F 73% 30.29 in 10.0 mi West 6.9 mph - N/A   Clear
10:15 AM 24.6 °F 18.8 °F 15.8 °F 69% 30.29 in 10.0 mi WSW 4.6 mph - N/A   Clear
10:35 AM 25.9 °F 20.3 °F 16.5 °F 68% 30.29 in 10.0 mi SSW 4.6 mph - N/A   Clear
10:55 AM 27.0 °F 23.0 °F 16.9 °F 66% 30.29 in 10.0 mi SSW 3.5 mph - N/A   Clear
11:15 AM 27.7 °F 22.4 °F 17.4 °F 65% 30.28 in 10.0 mi SSW 4.6 mph - N/A   Clear
11:35 AM 28.6 °F 24.8 °F 18.5 °F 66% 30.27 in 10.0 mi SW 3.5 mph - N/A   Clear
11:55 AM 28.9 °F 21.9 °F 17.8 °F 63% 30.26 in 10.0 mi SW 6.9 mph - N/A   Clear
12:15 PM 28.2 °F 19.5 °F 18.5 °F 67% 30.24 in 10.0 mi SW 9.2 mph - N/A   Clear
12:35 PM 28.2 °F 22.0 °F 18.7 °F 67% 30.23 in 10.0 mi SW 5.8 mph - N/A   Clear
12:55 PM 29.3 °F 22.3 °F 18.5 °F 64% 30.21 in 10.0 mi SW 6.9 mph - N/A   Clear
1:15 PM 30.4 °F 23.6 °F 19.2 °F 63% 30.21 in 10.0 mi SSW 6.9 mph - N/A   Clear
1:35 PM 30.7 °F 24.1 °F 19.6 °F 63% 30.20 in 10.0 mi SW 6.9 mph - N/A   Clear
1:55 PM 32.0 °F 25.6 °F 19.0 °F 59% 30.19 in 10.0 mi SSW 6.9 mph - N/A   Clear
2:15 PM 32.4 °F 25.3 °F 19.9 °F 60% 30.18 in 10.0 mi SW 8.1 mph - N/A   Clear
2:35 PM 32.5 °F 26.2 °F 19.9 °F 60% 30.18 in 10.0 mi SW 6.9 mph - N/A   Clear
2:55 PM 32.2 °F 25.8 °F 21.2 °F 64% 30.17 in 10.0 mi South 6.9 mph - N/A   Clear
3:15 PM 32.4 °F 26.9 °F 20.3 °F 61% 30.17 in 10.0 mi South 5.8 mph - N/A   Clear
3:35 PM 32.0 °F 25.6 °F 20.3 °F 62% 30.16 in 10.0 mi South 6.9 mph - N/A   Clear
3:55 PM 31.6 °F 27.0 °F 20.5 °F 63% 30.15 in 10.0 mi SSE 4.6 mph - N/A   Clear
4:15 PM 30.9 °F 22.8 °F 20.3 °F 65% 30.15 in 10.0 mi South 9.2 mph - N/A   Clear
4:35 PM 30.6 °F 23.1 °F 20.3 °F 66% 30.14 in 10.0 mi SSE 8.1 mph - N/A   Clear
4:55 PM 28.6 °F 19.3 °F 20.1 °F 71% 30.13 in 10.0 mi SSE 10.4 mph - N/A   Clear
5:15 PM 27.3 °F 17.7 °F 19.4 °F 72% 30.12 in 10.0 mi SSE 10.4 mph - N/A   Clear
5:35 PM 26.6 °F 17.5 °F 18.9 °F 73% 30.12 in 10.0 mi SSE 9.2 mph - N/A   Clear
5:55 PM 24.6 °F 15.1 °F 18.7 °F 78% 30.11 in 10.0 mi SSE 9.2 mph - N/A   Clear
6:15 PM 25.0 °F 15.5 °F 18.9 °F 78% 30.10 in 10.0 mi SSE 9.2 mph - N/A   Clear
6:35 PM 27.1 °F 15.4 °F 20.3 °F 75% 30.10 in 10.0 mi South 15.0 mph - N/A   Clear
6:55 PM 27.9 °F 16.8 °F 20.7 °F 74% 30.09 in 10.0 mi South 13.8 mph - N/A   Clear
7:15 PM 27.1 °F 16.9 °F 20.5 °F 76% 30.09 in 10.0 mi South 11.5 mph - N/A   Clear
7:35 PM 27.1 °F 15.4 °F 20.8 °F 77% 30.08 in 10.0 mi South 15.0 mph - N/A   Clear
7:55 PM 28.8 °F 17.5 °F 22.1 °F 76% 30.07 in 10.0 mi South 15.0 mph - N/A   Clear
8:15 PM 29.3 °F 17.0 °F 22.3 °F 75% 30.06 in 10.0 mi South 18.4 mph - N/A   Clear
8:35 PM 28.2 °F 18.9 °F 22.1 °F 78% 30.07 in 10.0 mi South 10.4 mph - N/A   Clear
8:55 PM 27.5 °F 16.3 °F 22.3 °F 81% 30.06 in 10.0 mi South 13.8 mph - N/A   Clear
9:15 PM 28.2 °F 16.8 °F 22.6 °F 80% 30.06 in 10.0 mi South 15.0 mph 18.4 mph N/A   Clear
9:55 PM 27.7 °F 17.1 °F 22.6 °F 81% 30.05 in 10.0 mi South 12.7 mph - N/A   Clear
10:15 PM 27.0 °F 17.3 °F 21.9 °F 81% 30.04 in 10.0 mi South 10.4 mph - N/A   Clear
10:35 PM 26.1 °F 16.8 °F 21.9 °F 84% 30.04 in 10.0 mi South 9.2 mph - N/A   Clear
10:55 PM 27.7 °F 18.8 °F 23.4 °F 84% 30.02 in 10.0 mi South 9.2 mph - N/A   Clear
11:35 PM 28.4 °F 17.0 °F 23.2 °F 81% 30.00 in 10.0 mi South 15.0 mph 19.6 mph N/A   Clear
11:55 PM 28.8 °F 17.0 °F 23.0 °F 79% 29.99 in 10.0 mi South 16.1 mph 21.9 mph N/A   Clear